This demonstration page uses our WeatherBlox Daily Observations layout. Learn more.

Left ArrowRight Arrow

31.84235, -102.49876

Hourly Observations for August 14, 2017

Temp ( °F °C ) Dew Point ( °F °C ) Humidity (%) Winds ( mph kmh ) Pressure ( in mb ) Visibility ( mi km ) Precip ( " mm )
12:53 am 00:53 Clear 76 24.4 71 21.7 85 85 SSW 5 7 29.75 1008 10 16 0.00 0.00
1:53 am 01:53 Clear 76 24.4 71 21.7 85 85 SSW 5 7 29.77 1008 10 16 0.00 0.00
2:53 am 02:53 Mostly Clear 74 23.3 72 22.2 94 94 ENE 9 15 29.81 1010 10 16 0.00 0.00
3:53 am 03:53 Clear 72 22.2 66 18.9 82 82 ENE 13 20 29.81 1010 10 16 0.00 0.00
4:53 am 04:53 Clear 70 21.1 66 18.9 87 87 ENE 12 19 29.81 1009 10 16 0.00 0.00
5:53 am 05:53 Clear 70 21.1 65 18.3 84 84 ENE 12 19 29.84 1010 10 16 0.00 0.00
6:53 am 06:53 Clear 69 20.6 64 17.8 84 84 E 8 13 29.83 1010 10 16 0.00 0.00
7:53 am 07:53 Sunny 70 21.1 65 18.3 84 84 Calm 29.83 1010 10 16 0.00 0.00
8:53 am 08:53 Sunny 73 22.8 65 18.3 76 76 ESE 6 9 29.83 1010 10 16 0.00 0.00
9:53 am 09:53 Sunny 77 25 66 18.9 69 69 ESE 7 11 29.82 1010 10 16 0.00 0.00
10:53 am 10:53 Sunny 81 27.2 67 19.4 62 62 SSE 7 11 29.81 1010 10 16 0.00 0.00
11:53 am 11:53 Sunny 85 29.4 66 18.9 53 53 S 10 17 29.80 1009 10 16 0.00 0.00
12:53 pm 12:53 Sunny 88 31.1 65 18.3 46 46 WSW 13 20 29.78 1008 10 16 0.00 0.00
1:53 pm 13:53 Sunny 90 32.2 65 18.3 44 44 VRB 6 9 29.77 1008 10 16 0.00 0.00
2:53 pm 14:53 Sunny 90 32.2 63 17.2 41 41 WSW 8 13 29.75 1007 10 16 0.00 0.00
3:53 pm 15:53 Sunny 93 33.9 64 17.8 38 38 WSW 7 11 29.73 1007 10 16 0.00 0.00
4:53 pm 16:53 Sunny 92 33.3 60 15.6 34 34 SE 7 11 29.70 1006 10 16 0.00 0.00
5:53 pm 17:53 Sunny 94 34.4 61 16.1 33 33 SE 8 13 29.69 1006 10 16 0.00 0.00
6:53 pm 18:53 Sunny 94 34.4 61 16.1 33 33 S 9 15 29.68 1005 10 16 0.00 0.00
7:53 pm 19:53 Sunny 89 31.7 62 16.7 41 41 SSW 12 19 29.70 1006 10 16 0.00 0.00
8:53 pm 20:53 Clear 87 30.6 63 17.2 45 45 SSE 9 15 29.70 1006 10 16 0.00 0.00
9:53 pm 21:53 Clear 85 29.4 64 17.8 50 50 S 13 20 29.73 1007 10 16 0.00 0.00
10:53 pm 22:53 Clear 83 28.3 65 18.3 55 55 S 10 17 29.74 1007 10 16 0.00 0.00
11:53 pm 23:53 Clear 82 27.8 65 18.3 56 56 S 10 17 29.73 1007 10 16 0.00 0.00

Powered by AerisWeather